FW6260 Weather Reports


Display with metric or nautical units.
time (UTC)temp
F
wind
direction
speed
MPH
gust
MPH
rain 1hr
in
rain 24hr
in
rain mn
in
humidity
%
barometer
mb
20260510193029 60 0.0 0.0 0.00 0.00 0.00 65
20260510190100 63 0.0 0.0 0.00 0.00 0.00 59
20260510183030 67 110 0.0 2.0 0.00 0.00 0.00 52
20260510180120 68 119 0.0 2.0 0.00 0.00 0.00 51
20260510173051 70 104 0.0 3.0 0.00 0.00 0.00 46
20260510163031 71 123 1.0 6.0 0.00 0.00 0.00 42
20260510153033 71 115 1.0 3.0 0.00 0.00 0.00 41
20260510150103 72 98 1.0 4.0 0.00 0.00 0.00 41
20260510143034 73 99 1.0 6.0 0.00 0.00 0.00 39
20260510140104 73 97 2.0 10.0 0.00 0.00 0.00 38
20260510133034 73 113 2.0 7.0 0.00 0.00 0.00 39
20260510130104 71 74 3.0 9.0 0.00 0.00 0.00 42
20260510123035 71 101 2.0 9.0 0.00 0.00 0.00 44
20260510120105 71 103 3.0 9.0 0.00 0.00 0.00 44
20260510113056 72 97 3.0 11.0 0.00 0.00 0.00 44
20260510110106 71 99 3.0 9.0 0.00 0.00 0.00 46
20260510103037 70 104 3.0 11.0 0.00 0.00 0.00 46
20260510100107 69 103 3.0 11.0 0.00 0.00 0.00 50
20260510093058 68 96 3.0 10.0 0.00 0.00 0.00 53
20260510090108 67 93 3.0 9.0 0.00 0.00 0.00 56
20260510083058 66 82 3.0 11.0 0.00 0.00 0.00 59
20260510080109 64 112 2.0 8.0 0.00 0.00 0.00 62
20260510073040 62 103 2.0 7.0 0.00 0.00 0.00 66
20260510070110 60 102 3.0 8.0 0.00 0.00 0.00 70
20260510063040 58 111 2.0 7.0 0.00 0.00 0.00 74
20260510060110 56 113 1.0 4.0 0.00 0.00 0.00 78
20260510053042 53 128 1.0 3.0 0.00 0.00 0.00 82
20260510050152 48 127 0.0 2.0 0.00 0.00 0.00 89
20260510043042 45 127 0.0 2.0 0.00 0.00 0.00 93
20260510040113 45 147 0.0 2.0 0.00 0.00 0.00 93
20260510033044 45 162 1.0 3.0 0.00 0.00 0.00 93
20260510030114 46 157 1.0 3.0 0.00 0.00 0.00 92
20260510023045 46 163 1.0 3.0 0.00 0.00 0.00 92
20260510020155 46 153 1.0 3.0 0.00 0.00 0.00 93
20260510013046 47 126 0.0 2.0 0.00 0.00 0.00 91
20260510010116 47 132 0.0 3.0 0.00 0.00 0.00 91
20260510003046 48 151 1.0 4.0 0.00 0.00 0.00 90
20260510000219 50 139 0.0 2.0 0.00 0.00 0.00 87
20260509233107 51 135 0.0 2.0 0.00 0.00 0.00 85
20260509230017 51 139 0.0 2.0 0.00 0.00 0.00 84
20260509223048 51 123 0.0 2.0 0.00 0.00 0.00 85
20260509220037 51 122 0.0 3.0 0.00 0.00 0.00 85
20260509213049 51 126 0.0 1.0 0.00 0.00 0.00 85
20260509210038 52 0.0 0.0 0.00 0.00 0.00 85
20260509203110 53 0.0 0.0 0.00 0.00 0.00 82
20260509200019 55 0.0 0.0 0.00 0.00 0.00 78